Tutti
K13-A Airport EHJR Meteo
|
(EHJR)
Cielo sereno
Ventoso |
|
12 °C |
There is no TAF data available at EHJR or any nearby airports.
Storico METAR EHJR recente
| Date | Time (CEST) | Flight Rules | Wind Dir. | Speed | Type | Height AGL (ft) | Visibility | Temp (°C) | Temp (°F) | Dew Point (°C) | Dew Point (°F) | Rel. Humid. | Pressure | Density Altitude | Remarks |
|---|---|---|---|---|---|---|---|---|---|---|---|---|---|---|---|
| 08-mag | 19:55 | n/a | 80° | 16 kt | Missing | 12° | 53° | 9° | 48° | 82% | 1019 mb | -331 ft | |||
| 08-mag | 19:25 | n/a | 90° | 15 kt | Missing | 12° | 53° | 9° | 48° | 82% | 1019 mb | -331 ft | |||
| 08-mag | 18:55 | n/a | 80° | 13 kt | Missing | 12° | 53° | 9° | 48° | 82% | 1018 mb | -302 ft | |||
| 08-mag | 18:25 | n/a | 80° | 9 kt | Missing | 12° | 53° | 10° | 50° | 88% | 1018 mb | -302 ft | |||
| 08-mag | 17:55 | n/a | 80° | 7 kt | Missing | 12° | 53° | 10° | 50° | 88% | 1018 mb | -302 ft | |||
| 08-mag | 17:25 | n/a | 90° | 9 kt | Missing | 12° | 53° | 9° | 48° | 82% | 1018 mb | -302 ft | |||
| 08-mag | 16:55 | n/a | 90° | 7 kt | Missing | 11° | 51° | 9° | 48° | 87% | 1018 mb | -422 ft | |||
| 08-mag | 16:25 | n/a | 110° | 9 kt | Missing | 11° | 51° | 9° | 48° | 87% | 1018 mb | -422 ft | |||
| 08-mag | 15:55 | n/a | 110° | 9 kt | Missing | 11° | 51° | 9° | 48° | 87% | 1019 mb | -451 ft | |||
| 08-mag | 15:25 | n/a | 110° | 9 kt | Missing | 11° | 51° | 9° | 48° | 87% | 1018 mb | -422 ft | |||
| 08-mag | 14:55 | n/a | 110° | 11 kt | Missing | 11° | 51° | 9° | 48° | 87% | 1019 mb | -451 ft | |||
| 08-mag | 14:25 | n/a | 120° | 12 kt | Missing | 11° | 51° | 9° | 48° | 87% | 1019 mb | -451 ft | |||
| 08-mag | 13:55 | n/a | 120° | 11 kt | Missing | 11° | 51° | 8° | 46° | 82% | 1019 mb | -451 ft | |||
| 08-mag | 13:25 | n/a | 130° | 10 kt | Missing | 11° | 51° | 9° | 48° | 87% | 1018 mb | -422 ft | |||
| 08-mag | 12:55 | n/a | 130° | 12 kt | Missing | 11° | 51° | 8° | 46° | 82% | 1019 mb | -451 ft | |||
| 08-mag | 12:25 | n/a | 130° | 13 kt | Missing | 11° | 51° | 9° | 48° | 87% | 1018 mb | -422 ft | |||
| 08-mag | 11:55 | n/a | 120° | 14 kt | Missing | 11° | 51° | 9° | 48° | 87% | 1018 mb | -422 ft | |||
| 08-mag | 11:25 | n/a | 120° | 15 kt | Missing | 11° | 51° | 9° | 48° | 87% | 1018 mb | -422 ft | |||
| 08-mag | 10:55 | n/a | 130° | 13 kt | Missing | 11° | 51° | 9° | 48° | 87% | 1018 mb | -422 ft | |||
| 08-mag | 10:25 | n/a | 120° | 12 kt | Missing | 11° | 51° | 9° | 48° | 87% | 1018 mb | -422 ft | |||
| 08-mag | 09:55 | n/a | 120° | 13 kt | Missing | 11° | 51° | 9° | 48° | 87% | 1016 mb | -362 ft | |||
| 08-mag | 09:25 | n/a | 130° | 12 kt | Missing | 11° | 51° | 9° | 48° | 87% | 1018 mb | -422 ft | |||
| 08-mag | 08:55 | n/a | 130° | 12 kt | Missing | 11° | 51° | 9° | 48° | 87% | 1018 mb | -422 ft | |||
| 08-mag | 08:25 | n/a | 130° | 12 kt | Missing | 11° | 51° | 9° | 48° | 87% | 1016 mb | -362 ft |
Accedi
| Il tuo browser non è supportato. fai l'upgrade del tuo browser |
